GSAT0101 (PRN E11)

Last updated on Oct. 24, 2020, 5:55 a.m. UTC

1 37846U 11060A   20297.41416829 -.00000093  00000-0  00000-0 0  9994
2 37846  56.7079  37.7728 0000786 324.9700  35.0307  1.70475265 55953
UTC
Height (km)
Latitude
Longitude
Inclination
Orbital Period
UTC large
Height (km)
Speed (km/s)
/
Latitude / Longitude
Inclination (degrees)
Orbital Period (minutes)
Azimuth
Elevation
Range (km)
Doppler Factor
iOS Compass Heading
iOS Angle

Next 30 passes for location: Hong Kong

Rise time Rise Azimuth (degrees) Set time Set Azimuth (degrees) Duration Max altitude (degrees)

No matching passes for this satellites